Regional Weather Roundup
Issued by NWS Newport/Morehead, NC

Home | Current Version | Previous Version | Text Only | Print | Product List | Glossary On
Versions: 1 2 3 4 5 6 7 8 9 10 11 12 13 14 15 16 17 18 19 20 21 22 23 24 25 26 27 28 29 30 31 32 33 34 35 36 37 38 39 40 41 42 43 44 45 46 47 48 49 50
000
ASUS42 KMHX 291713
RWRMHX
WEATHER ROUNDUP FOR EASTERN NORTH CAROLINA
NATIONAL WEATHER SERVICE NEWPORT/MOREHEAD CITY NC
100 PM EDT THU SEP 29 2016

NOTE: "FAIR" INDICATES FEW OR NO CLOUDS BELOW 12,000 FEET
WITH NO SIGNIFICANT WEATHER AND/OR OBSTRUCTIONS TO VISIBILITY

NCZ015>017-031-032-045>047-102-103-291800-
NORTH COAST

CITY           SKY/WX    TMP DP  RH WIND       PRES   REMARKS
EDENTON        CLOUDY    79  78  96 E3        30.07R
ELIZABETH CITY LGT RAIN  77  73  87 E8        30.06S
KITTY HAWK     CLOUDY    80  76  89 E5        30.05R
MANTEO         CLOUDY    80  74  83 E9        30.06S

$$

NCZ045>047-081-094-103-104-291800-
CENTRAL COAST

CITY           SKY/WX    TMP DP  RH WIND       PRES   REMARKS
FRISCO         MOSUNNY   83  73  72 S5        30.04S

$$

NCZ095-097-098-100-101-291800-
SOUTHERN COAST

CITY           SKY/WX    TMP DP  RH WIND       PRES   REMARKS
BEAUFORT       HVY RAIN  74  65  73 W16G33    30.03S VSB 1/2
CEDAR ISLAND   NOT AVBL
JACKSONVILLE   CLOUDY    76  72  87 NE7       30.05R
PINEY ISLAND   RAIN     N/A N/A N/A E8        30.05R
WILMINGTON     CLOUDY    73  71  93 NE7       30.04F


$$

NCZ011>013-027>030-043-044-078>080-089-090>093-098-291800-
COASTAL PLAIN

CITY           SKY/WX    TMP DP  RH WIND       PRES   REMARKS
AHOSKIE        RAIN      72  72  98 E5        30.06F
CLINTON        CLOUDY    70  70 100 CALM      30.04R
ELIZABETHTOWN  CLOUDY    69  69 100 SE3       30.04S
GOLDSBORO      LGT RAIN  70  70 100 E6        30.02S
GREENVILLE     RAIN      72  72 100 CALM      30.08S
HAVELOCK       PTSUNNY   77  70  79 CALM      30.06S THUNDER
KENANSVILLE    LGT RAIN  70  70 100 E9        30.04F
KINSTON        CLOUDY    70  70 100 E6        30.06F
NEW BERN       LGT RAIN  72  69  90 NW7       30.08R
RICHLANDS      CLOUDY    74  70  87 NE9       30.06S
ROCKY MOUNT    PTSUNNY   71  71 100 CALM      30.05S
WASHINGTON     HVY RAIN  71  67  88 CALM      30.11R
WHITEVILLE     LGT RAIN  70  69  97 E6        30.02R

$$

AMZ130-135-150-152-154-156-158-170-250-252-270-ANZ085-086-088-633-658-670-291800-
MARINE OBSERVATIONS

STATION/POSITION TIME  TEMP    WIND        PRES    WAVE   SWELL
                       AIR SEA DIR/SP/G            HT/PER HT/PER
                 (UTC) (F)     (DEG/KT/KT) (MB)    (FT/S) (FT/S)
CHESAPEAKE LIGHT NOT AVBL
64 E VA BEACH    1650   76 75   80/ 14/ 17 1017.4    5/ 7   5/ 7
DUCK             1648   76 77   60/ 13/ 15 1017.6
2 E DUCK         1641      77                N/A     4/ 7   2/11
OREGON INLET     1648   79 77   60/  9/ 12 1017.3
13E OREGON INLT  1600      77                N/A     5/ 8   5/ 8
HATTERAS CG      1648   83 78   CALM  /  4 1017.0
DIAMOND BUOY     1650   80 83   20/  2/  4 1017.3    4/ 7   3/ 7
CAPE LOOKOUT     1600   80      70/  6/  6 1016.9
BEAUFORT LAB     1648   73 77  270/ 12/ 28 1017.0
30 SE NEW RVR IN 1608   81 83  230/  8/ 12 1017.1
30 SE NEW RVR IN 1655      83                N/A     3/ 7   2/11
27 SE WRIGHTSVLE 1608   82 81  190/ 10/ 14 1017.0
5 SE WRIGHTSVLE  1608   81 81  200/ 10/ 16 1018.0
225 S CAPE HAT   1650   81 83  170/  6/  8 1017.5    3/11   3/11
41 SE CHARLESTON 1650   80 82  180/ 17/ 19 1015.2    4/ 5   2/11

$$




USA.gov is the U.S. government's official web portal to all federal, state and local government web resources and services.